Simultaneous Nadir Overpasses (SNOs) Predictions

Prediction of SNOs between GOES-16 and METOP-C Satellite Orbit:

Table of predicted SNOs for the next 14.0 days since TLE Epoch: 11/1/2019
Index Date Time (GOES-16) GOES-16 Lat,Lon METOP-C Lat,Lon Distance(km) Time Diff (sec)
1 11/02/2019 02:43:21 -0.01, -75.19 -0.59, -77.75 291.34 80
2 11/03/2019 02:20:01 -0.01, -75.19 0.54, -72.76 277.82 80
3 11/04/2019 14:38:53 0.00, -75.20 0.47, -77.32 241.76 80
4 11/05/2019 14:20:54 0.00, -75.21 -0.65, -72.33 327.91 80
5 11/07/2019 02:39:52 -0.00, -75.21 -0.41, -76.91 194.53 80
6 11/08/2019 02:16:33 0.00, -75.22 0.72, -71.92 375.59 80
7 11/09/2019 14:38:05 -0.00, -75.24 0.29, -76.49 142.67 80
8 11/10/2019 14:14:46 -0.00, -75.25 -0.84, -71.50 427.76 80
9 11/12/2019 02:36:25 0.01, -75.27 -0.16, -76.10 93.67 80
10 11/13/2019 02:13:05 0.01, -75.28 0.96, -71.10 476.85 80
11 11/14/2019 14:31:58 -0.01, -75.31 0.05, -75.67 41.01 80




NCC Satellite Simultaneous Nadir Overpasses (SNOs) Prediction Service
